Date,TemperatureHighF,TemperatureAvgF,TemperatureLowF,DewpointHighF,DewpointAvgF,DewpointLowF,HumidityHigh,HumidityAvg,HumidityLow,PressureMaxIn,PressureMinIn,WindSpeedMaxMPH,WindSpeedAvgMPH,GustSpeedMaxMPH,PrecipitationSumIn
2013-1-1,48.6,46.4,34.7,48.2,39.1,16.0,99,78,45,30.08,29.89,10,2,11,0.19
2013-1-2,48.2,43.1,38.8,46.6,40.3,34.7,99,90,68,30.17,29.90,11,2,11,0.18
2013-1-3,57.4,37.8,33.1,38.7,35.6,28.9,99,92,78,30.22,30.02,6,2,6,0.04
2013-1-4,50.9,38.2,27.9,29.1,22.2,17.6,85,55,29,30.27,30.15,11,4,11,0.00
2013-1-5,51.8,39.8,28.8,29.3,22.4,18.7,68,51,29,30.35,30.21,10,3,10,0.00
2013-1-6,52.2,42.8,39.7,38.1,32.8,27.5,76,68,56,30.21,30.06,6,2,6,0.00
2013-1-7,54.1,42.5,32.5,32.2,29.7,25.9,77,61,42,30.40,30.15,11,3,11,0.00
2013-1-8,56.3,44.0,30.7,39.0,33.7,25.7,87,68,47,30.44,30.33,6,2,6,0.00
2013-1-9,47.5,45.4,42.1,41.5,40.7,36.5,86,84,72,30.42,30.32,11,2,11,0.00
2013-1-10,45.5,45.5,45.5,41.5,41.5,41.5,86,86,86,30.44,30.44,4,3,0,0.00
2013-1-25,26.1,25.6,25.2,23.4,21.8,19.4,89,85,78,29.54,29.51,3,-695,3,0.00
2013-1-26,35.8,28.9,25.7,31.1,26.8,23.5,96,92,81,30.47,29.42,3,-405,3,0.08
2013-1-27,46.2,31.8,22.8,27.1,22.9,20.3,93,72,45,30.68,30.44,6,-414,8,0.05
2013-1-28,78.3,42.2,31.5,45.7,30.0,9.3,89,69,7,30.59,30.30,1,-960,3,0.04
2013-2-18,40.6,39.7,38.7,25.0,24.3,23.7,57,54,51,30.29,30.27,7,2,8,0.75
2013-2-19,48.7,41.2,33.6,47.1,36.6,24.8,96,84,58,30.27,29.88,15,2,15,0.16
2013-2-20,50.7,40.8,33.3,36.9,17.2,10.8,89,40,21,30.16,29.98,12,2,13,0.00
2013-2-21,51.6,39.8,27.0,21.4,17.6,14.9,65,42,25,30.29,30.13,8,1,9,0.00
2013-2-22,40.3,34.6,31.1,34.2,29.8,19.9,97,84,45,30.38,30.16,8,1,8,0.20
2013-2-23,42.1,38.5,34.9,41.0,37.8,34.2,98,97,95,30.16,29.84,4,1,4,0.36
2013-2-24,61.0,48.9,41.2,44.1,35.3,23.9,99,65,29,30.06,29.81,9,1,11,0.03
2013-2-25,42.3,36.5,31.5,26.4,23.2,20.5,71,59,48,30.24,30.05,7,1,8,0.00
2013-2-26,54.9,42.7,34.2,54.5,39.1,24.1,99,88,66,30.18,29.59,15,2,18,0.63
2013-2-27,58.5,48.3,40.6,43.5,38.7,33.1,99,72,42,29.80,29.63,10,2,12,0.00
2013-2-28,48.7,42.5,35.1,38.3,30.4,25.5,84,63,43,29.87,29.70,10,2,10,0.00
2013-3-1,47.7,40.2,33.4,30.7,27.4,24.8,77,61,44,29.94,29.84,9,1,12,0.00
2013-3-2,45.7,38.2,30.4,29.8,24.7,18.5,78,59,43,29.94,29.83,9,1,9,0.00
2013-3-3,45.1,34.5,28.0,22.1,19.0,16.3,67,54,36,30.00,29.86,10,2,12,0.00
2013-3-4,49.6,37.2,25.3,19.0,14.8,12.7,64,42,24,30.14,29.99,13,2,13,0.00
2013-3-5,46.6,42.0,38.1,42.6,30.8,14.7,98,69,32,30.10,29.58,10,2,12,0.28
2013-3-6,45.7,39.9,34.5,40.5,32.0,26.8,98,75,55,30.05,29.53,19,4,19,0.04
2013-3-7,49.5,40.8,33.4,30.7,28.2,24.8,79,61,46,30.25,30.04,11,2,15,0.00
2013-3-8,54.1,42.8,32.4,28.2,24.8,21.7,73,51,31,30.32,30.17,12,2,15,0.00
2013-3-9,61.0,47.3,32.4,29.5,26.2,23.7,74,47,25,30.37,30.26,7,1,8,0.00
2013-3-10,64.9,53.7,44.4,29.8,25.8,21.6,51,35,22,30.34,30.21,7,-25,10,0.02
2013-3-11,66.6,55.2,42.3,53.1,41.1,23.2,82,60,34,30.25,29.94,15,3,16,0.00
2013-3-12,68.0,59.2,46.9,60.6,51.3,31.8,97,77,50,29.96,29.75,13,3,14,0.62
2013-3-13,54.9,44.9,35.4,33.1,26.6,17.2,78,51,29,30.14,29.95,14,2,17,0.00
2013-3-14,52.2,39.7,28.9,20.7,17.8,14.5,66,43,23,30.26,30.13,13,2,16,0.00
2013-3-15,61.7,47.9,33.4,34.7,25.3,16.7,54,42,31,30.20,29.91,11,2,14,0.00
2013-3-16,76.3,61.3,49.3,52.7,43.3,34.2,69,53,35,29.91,29.65,11,2,12,0.00
2013-3-17,63.5,49.6,38.3,52.0,43.3,36.7,95,79,65,30.19,29.83,9,2,12,0.00
2013-3-18,40.3,38.0,36.1,39.7,37.1,35.1,98,97,94,30.22,29.86,12,2,12,0.22
2013-3-19,65.5,50.0,37.9,45.3,31.2,8.8,99,60,17,30.04,29.84,15,2,17,0.00
2013-3-20,54.9,46.6,38.8,20.5,13.3,7.3,41,26,18,30.12,29.81,11,2,13,0.00
2013-3-21,44.4,38.1,28.9,32.4,17.9,9.7,74,45,26,29.99,29.75,12,2,15,0.00
2013-3-22,49.8,36.8,23.7,18.5,13.6,10.2,62,41,22,30.11,29.99,9,2,10,0.00
2013-3-23,56.1,45.7,37.9,30.7,23.2,17.4,54,41,30,30.08,29.92,7,1,7,0.00
2013-3-24,45.0,38.7,34.3,37.4,33.1,27.3,96,82,50,29.95,29.58,9,1,10,0.75
2013-3-25,47.3,38.9,33.3,37.0,29.5,22.1,98,73,41,29.83,29.57,13,2,17,0.02
2013-3-26,47.7,41.1,32.5,28.6,26.0,23.4,73,56,43,30.12,29.83,12,2,12,0.00
2013-3-27,50.7,41.3,33.3,26.4,23.7,19.4,73,51,31,30.25,30.12,14,3,14,0.00
2013-3-28,55.4,43.2,33.1,27.7,23.9,21.7,71,49,29,30.31,30.17,12,2,12,0.00
2013-3-29,59.2,47.5,34.5,28.2,24.3,22.3,65,42,25,30.35,30.19,9,1,11,0.00
2013-3-30,65.1,54.0,43.5,42.8,29.8,23.5,65,40,27,30.26,30.09,8,1,9,0.00
2013-3-31,66.0,55.5,46.9,55.8,49.8,42.8,98,82,62,30.11,29.81,10,2,14,0.53
2013-4-1,70.7,58.9,48.4,53.8,45.7,34.2,98,67,31,29.99,29.81,14,2,15,0.07
2013-4-2,58.5,48.3,37.2,34.5,25.1,18.0,69,43,21,30.17,29.99,11,2,14,0.00
2013-4-3,58.3,48.1,35.8,24.6,18.6,14.4,52,32,20,30.32,30.16,10,1,10,0.00
2013-4-4,48.4,41.1,37.8,38.1,29.0,18.0,95,65,36,30.39,29.95,11,2,13,0.68
2013-4-5,64.0,48.7,37.6,46.9,39.4,33.3,98,74,37,30.04,29.90,7,1,9,0.05
2013-4-6,62.2,53.1,45.1,37.6,29.0,17.1,64,42,22,30.29,30.03,12,2,13,0.00
2013-4-7,71.1,55.7,37.9,42.8,38.0,32.9,84,55,32,30.29,30.12,12,2,13,0.00
2013-4-8,79.0,66.0,54.7,55.2,51.0,42.4,89,61,38,30.17,30.04,11,2,13,0.00
2013-4-9,84.0,71.4,58.5,57.6,55.0,51.6,89,60,33,30.18,30.05,10,2,13,0.00
2013-4-10,86.4,73.9,61.0,61.3,57.5,55.2,87,59,36,30.09,29.93,9,2,11,0.00
2013-4-11,80.1,70.9,61.0,65.3,59.5,56.7,90,69,47,29.98,29.78,12,2,15,0.00
2013-4-12,81.3,71.7,64.6,68.5,60.7,39.9,97,72,39,29.79,29.59,12,2,13,0.79
2013-4-13,73.6,63.9,50.2,42.4,39.3,36.9,66,42,27,30.01,29.75,8,2,10,0.00
2013-4-14,79.9,66.5,52.0,52.5,39.1,33.6,61,38,20,30.11,30.00,8,1,8,0.00
2013-4-15,69.6,62.6,55.4,58.3,55.3,52.5,95,78,59,30.22,30.02,9,1,9,0.09
2013-4-16,75.4,65.3,58.5,60.8,57.9,56.8,95,79,55,30.31,30.20,5,1,5,0.00
2013-4-17,79.5,69.6,59.0,63.5,60.8,56.8,97,75,54,30.23,30.11,5,0,5,0.00
2013-4-18,77.4,69.6,61.0,63.1,59.3,55.6,92,71,50,30.19,30.03,9,2,12,0.00
2013-4-19,80.1,69.0,64.0,68.2,64.4,61.0,97,86,61,30.04,29.70,12,2,13,0.88
2013-4-20,64.0,54.6,46.2,62.6,38.6,30.9,95,57,33,30.28,29.80,8,1,9,0.04
2013-4-21,59.4,50.7,43.9,41.2,36.4,32.2,85,59,43,30.52,30.28,9,1,9,0.00
2013-4-22,60.3,48.5,36.7,44.6,37.4,34.0,91,67,42,30.51,30.30,7,1,8,0.00
2013-4-23,64.9,53.9,46.0,50.4,46.0,43.0,92,76,54,30.30,30.13,5,1,5,0.02
2013-4-24,73.6,62.4,50.4,55.9,52.8,48.7,95,73,51,30.15,29.97,8,1,10,0.00
2013-4-25,68.2,60.1,50.7,56.1,43.4,37.0,79,55,34,30.28,30.01,9,2,9,0.00
2013-4-26,69.8,58.6,46.8,47.3,38.5,32.4,89,51,27,30.44,30.28,6,1,7,0.00
2013-4-27,71.2,61.9,52.3,54.0,45.1,39.4,84,56,35,30.39,30.26,5,0,5,0.00
2013-4-28,58.1,55.4,53.2,54.5,51.4,46.4,97,86,74,30.27,30.10,8,0,8,0.37
2013-4-29,69.3,60.7,53.8,63.0,58.2,52.9,99,92,72,30.10,29.98,5,0,7,0.39
2013-4-30,64.6,59.3,55.6,59.0,56.6,53.6,98,91,79,30.19,30.01,4,0,4,0.00
2013-5-1,59.9,57.2,55.6,58.5,55.7,54.1,96,95,92,30.35,30.18,6,1,6,0.01
2013-5-2,60.3,56.7,53.4,57.0,54.7,50.9,98,93,87,30.35,30.27,3,0,4,0.00
2013-5-3,66.0,56.0,47.5,54.9,48.5,38.8,96,78,42,30.30,30.19,6,0,8,0.00
2013-5-4,59.4,52.9,47.7,52.9,47.9,43.3,91,83,73,30.24,30.11,6,0,7,0.00
2013-5-5,57.4,52.8,47.5,54.3,49.7,45.0,94,89,82,30.13,30.01,7,1,9,0.01
2013-5-6,61.7,58.0,54.3,60.8,57.3,53.2,99,98,94,30.03,29.85,6,1,7,1.41
2013-5-7,68.4,60.0,54.0,59.4,54.4,47.7,99,83,48,29.95,29.86,4,0,5,0.00
2013-5-8,67.3,59.6,52.7,59.9,55.3,50.7,97,86,65,30.01,29.93,4,0,4,0.01
2013-5-9,78.6,65.6,51.4,59.2,55.8,50.5,99,74,46,30.07,29.98,6,0,7,0.00
2013-5-10,83.7,73.1,62.1,63.3,58.5,54.9,82,62,41,30.06,29.94,6,0,10,0.00
2013-5-11,80.1,71.3,64.9,66.6,62.2,58.1,95,74,51,29.95,29.78,6,0,9,0.20
2013-5-12,69.8,62.8,52.9,63.5,49.3,35.2,97,65,32,30.03,29.78,11,2,12,0.01
2013-5-13,63.5,54.5,43.9,40.6,36.3,30.6,81,53,32,30.20,30.03,8,1,8,0.00
2013-5-14,68.4,56.4,41.9,42.8,38.5,33.8,82,54,30,30.27,30.08,6,0,8,0.00
2013-5-15,86.0,69.2,53.8,63.7,53.9,42.1,74,59,44,30.08,29.89,8,0,8,0.00
2013-5-16,82.9,74.8,66.2,63.3,60.2,56.7,81,61,45,29.97,29.89,5,1,6,0.00
2013-5-17,85.5,74.7,64.9,64.2,61.0,58.3,84,64,43,30.08,29.96,5,0,5,0.00
2013-5-18,73.2,67.9,62.1,68.5,63.4,56.8,97,86,73,30.16,30.06,9,0,9,1.31
2013-5-19,74.1,66.6,62.4,70.3,65.5,61.5,100,96,85,30.16,30.06,5,0,5,0.76
2013-5-20,74.1,68.3,66.4,70.9,67.3,65.7,100,97,82,30.12,30.02,3,0,3,0.11
2013-5-21,81.9,72.6,66.9,73.6,69.0,66.4,99,89,71,30.05,29.94,4,0,6,0.06
2013-5-22,82.6,73.7,68.5,70.2,68.0,66.6,97,83,62,30.03,29.90,4,0,5,0.00
2013-5-23,78.6,71.3,66.0,70.0,67.4,64.6,99,88,69,29.96,29.80,4,0,5,0.18
2013-5-24,67.5,62.8,52.2,64.6,51.6,36.1,97,70,37,30.19,29.81,14,3,16,0.05
2013-5-25,72.9,57.4,43.7,50.2,39.9,32.0,86,56,24,30.28,30.15,9,1,10,0.00
2013-5-26,73.2,61.0,48.9,51.3,43.8,37.4,74,55,34,30.29,30.18,6,0,6,0.00
2013-5-27,79.2,67.6,54.3,56.3,51.7,47.3,84,58,37,30.29,30.15,5,0,6,0.00
2013-5-28,83.1,71.9,61.2,66.4,62.1,52.2,95,73,54,30.25,30.14,5,0,8,0.00
2013-5-29,84.6,74.1,63.7,65.3,63.2,61.0,93,70,49,30.24,30.15,7,0,8,0.00
2013-5-30,85.5,74.5,64.0,68.4,63.8,61.0,95,72,46,30.27,30.17,4,0,6,0.00
2013-5-31,86.2,75.9,66.4,69.4,65.9,64.0,95,73,49,30.22,30.10,4,0,5,0.00
2013-6-1,87.1,76.7,66.7,68.4,65.8,61.7,96,71,44,30.13,30.01,6,0,6,0.00
2013-6-2,84.2,75.5,67.8,70.0,66.8,64.2,95,76,56,30.04,29.90,6,0,7,0.37
2013-6-3,81.3,71.7,66.2,71.6,68.8,65.3,98,91,68,29.95,29.83,10,0,10,0.48
2013-6-4,75.6,68.4,64.0,66.4,64.1,61.5,98,87,69,30.10,29.94,3,0,4,0.06
2013-6-5,78.6,70.4,61.9,65.1,61.8,57.4,97,75,55,30.15,30.02,5,0,5,0.06
2013-6-6,71.4,68.8,64.0,70.9,65.6,57.9,99,90,67,30.04,29.81,9,1,10,0.20
2013-6-7,70.3,68.8,67.3,69.8,68.4,66.9,100,99,97,29.85,29.53,9,1,12,0.86
2013-6-8,80.8,71.4,63.0,69.1,66.8,62.1,100,87,61,30.09,29.80,10,0,12,0.06
2013-6-9,84.6,75.6,67.8,72.0,69.3,66.0,98,82,59,30.16,30.05,4,0,4,0.01
2013-6-10,78.6,72.3,70.0,75.7,71.4,68.7,99,97,90,30.10,29.88,8,0,10,0.67
2013-6-11,82.2,74.5,68.0,70.2,66.9,64.0,97,79,57,29.94,29.89,8,1,8,0.00
2013-6-12,87.3,77.3,65.7,75.0,69.4,63.3,93,77,60,29.97,29.86,5,0,5,0.00
2013-6-13,90.9,78.0,67.3,75.2,71.0,61.5,97,81,46,29.86,29.58,24,1,24,0.17
2013-6-14,77.4,69.1,61.2,65.8,58.7,55.0,92,71,50,30.01,29.72,11,2,13,0.00
2013-6-15,81.0,71.9,62.6,64.6,60.4,56.3,88,68,48,30.12,30.01,4,0,6,0.00
2013-6-16,84.0,74.6,64.6,70.2,65.2,58.8,84,73,60,30.11,30.00,7,0,8,0.00
2013-6-17,80.8,74.9,69.3,73.2,69.1,65.3,89,82,74,30.02,29.92,6,0,6,0.00
2013-6-18,80.4,72.2,67.6,73.6,69.7,66.4,99,92,78,29.97,29.75,9,0,9,0.69
2013-6-19,77.2,70.1,64.0,68.7,66.3,63.5,100,88,70,30.13,29.88,4,0,4,0.00
2013-6-20,79.2,70.5,63.7,66.0,62.7,56.8,97,78,56,30.25,30.13,4,0,4,0.00
2013-6-21,80.1,69.6,57.9,64.9,57.3,51.3,92,67,39,30.27,30.20,5,0,5,0.00
2013-6-22,78.6,71.4,67.6,71.1,68.2,64.8,98,90,73,30.22,30.12,3,0,3,0.03
2013-6-23,82.8,74.6,67.6,74.1,70.7,67.1,99,88,66,30.22,30.12,4,0,4,0.03
2013-6-24,84.4,75.9,70.2,75.4,71.8,68.7,98,87,72,30.21,30.08,4,0,6,0.00
2013-6-25,87.6,76.3,68.5,75.7,71.1,67.5,98,85,63,30.12,29.99,5,0,5,0.00
2013-6-26,87.3,75.1,67.6,75.6,70.6,65.7,99,87,62,30.03,29.88,13,0,16,0.47
2013-6-27,85.5,75.7,66.9,76.3,71.3,65.8,100,87,63,29.92,29.71,8,0,8,0.00
2013-6-28,87.4,76.6,68.7,75.0,71.7,66.4,98,86,61,29.74,29.56,16,0,19,0.68
2013-6-29,81.3,74.0,68.5,73.9,71.1,68.2,99,91,72,29.72,29.58,4,0,4,0.27
2013-6-30,83.1,72.5,66.6,75.4,70.6,65.3,100,94,72,29.86,29.71,5,0,5,1.13
2013-7-1,79.2,73.1,68.7,74.3,71.3,68.4,100,94,79,29.99,29.84,4,0,4,0.71
2013-7-2,73.8,72.4,71.2,72.5,71.5,70.2,99,97,94,30.18,29.99,6,0,8,0.35
2013-7-3,80.8,74.6,72.1,75.9,73.4,70.0,100,96,82,30.24,30.15,5,0,8,0.20
2013-7-4,84.2,77.3,72.3,75.4,72.6,68.5,100,86,63,30.28,30.17,7,0,8,0.03
2013-7-5,86.2,78.5,72.3,75.4,72.6,70.7,98,83,63,30.27,30.15,5,0,5,0.03
2013-7-6,84.0,77.4,72.5,74.7,72.3,69.8,98,85,66,30.25,30.11,4,0,5,0.00
2013-7-7,84.4,76.6,69.4,77.0,72.3,68.2,97,87,73,30.19,30.06,5,0,8,0.08
2013-7-8,85.3,75.8,69.1,76.5,72.1,68.5,100,89,65,30.18,30.09,5,0,5,0.84
2013-7-9,84.7,76.1,71.2,77.2,73.5,69.4,99,92,74,30.16,30.05,4,0,4,0.00
2013-7-10,84.9,76.7,71.2,76.5,73.0,69.6,98,89,72,30.10,29.94,6,0,9,0.32
2013-7-11,77.5,73.2,71.4,75.0,72.5,70.5,100,98,88,29.97,29.88,4,0,6,0.74
2013-7-12,72.1,70.5,68.9,71.2,69.6,68.0,100,97,91,30.04,29.87,5,1,6,0.01
2013-7-13,75.4,71.9,68.5,74.7,71.2,67.8,99,98,93,30.19,30.02,3,0,4,0.13
2013-7-14,83.8,76.4,70.2,75.0,72.2,70.2,100,88,66,30.31,30.19,3,0,4,0.00
2013-7-15,84.9,76.7,68.7,75.0,71.7,68.2,100,85,62,30.33,30.25,0,0,0,0.00
2013-7-16,89.1,79.6,70.9,79.7,73.3,69.3,95,82,61,30.27,30.17,2,0,3,0.02
2013-7-17,88.5,81.3,74.1,77.4,75.0,71.8,98,82,62,30.22,30.10,4,0,4,0.00
2013-7-18,90.0,81.1,73.2,78.8,75.3,72.0,97,84,60,30.14,30.03,4,0,4,0.00
2013-7-19,87.6,80.4,74.1,77.2,74.6,72.5,97,83,66,30.09,29.97,1,0,1,0.00
2013-7-20,85.8,78.5,73.6,76.8,74.0,71.2,94,86,73,30.01,29.91,6,0,6,0.00
2013-7-21,84.6,76.9,72.9,77.0,73.2,71.2,97,89,74,29.98,29.89,6,0,6,0.00
2013-7-22,84.7,76.8,71.2,75.9,73.0,70.3,99,89,73,29.95,29.82,4,0,6,0.00
2013-7-23,86.4,78.8,72.9,75.0,72.5,70.7,96,82,61,29.83,29.71,6,0,7,0.00
2013-7-24,88.3,79.3,71.4,75.0,70.9,66.7,92,77,50,29.84,29.72,5,0,5,0.00
2013-7-25,77.2,71.5,65.5,69.8,67.3,64.0,97,87,74,30.04,29.83,9,1,10,0.60
2013-7-26,81.0,72.1,63.3,69.1,65.0,61.3,95,79,62,30.12,30.02,3,0,4,0.00
2013-7-27,81.0,72.4,67.6,73.4,68.4,65.5,99,88,68,30.06,29.93,6,0,6,0.51
2013-7-28,83.1,74.9,68.7,73.8,70.5,68.2,100,87,65,30.00,29.92,5,0,6,0.00
2013-7-29,82.2,74.1,67.6,72.0,66.7,61.5,97,79,54,30.16,29.98,6,1,7,0.02
2013-7-30,82.8,72.7,63.0,70.5,64.7,58.3,89,77,56,30.22,30.14,4,0,4,0.00
2013-7-31,79.9,74.2,70.2,72.9,69.9,66.2,97,87,72,30.15,29.99,5,0,5,0.32
2013-8-1,81.1,73.9,68.2,74.5,71.2,66.0,99,92,76,30.01,29.86,7,0,11,0.25
2013-8-2,83.3,74.1,66.7,72.1,68.2,64.9,99,83,58,30.03,29.90,4,0,4,0.07
2013-8-3,85.5,75.3,71.1,76.6,72.5,68.2,99,91,71,30.01,29.91,4,0,5,0.35
2013-8-4,81.3,74.1,68.0,71.8,67.6,60.1,99,82,50,30.03,29.88,7,1,7,0.01
2013-8-5,79.2,71.4,63.9,69.3,64.1,60.6,94,79,61,30.10,30.01,3,0,4,0.00
2013-8-6,79.0,71.7,64.4,70.3,66.6,63.5,98,85,73,30.06,29.99,5,0,6,0.34
2013-8-7,81.9,75.1,69.3,72.3,69.0,66.0,94,82,64,30.10,30.02,4,0,5,0.00
2013-8-8,83.3,76.9,70.7,75.0,71.8,69.4,98,85,71,30.07,30.00,0,0,0,0.00
2013-8-9,87.8,79.0,72.9,77.5,74.0,70.7,97,85,69,30.04,29.96,7,0,8,0.00
2013-8-10,87.6,76.4,72.1,77.9,73.3,70.0,98,91,71,30.09,30.01,7,0,8,0.00
2013-8-11,87.3,76.5,71.1,77.5,73.2,70.7,100,90,64,30.11,30.01,5,0,5,0.03
2013-8-12,87.3,78.5,72.3,75.9,72.7,70.2,99,83,60,30.05,29.93,11,0,11,0.01
2013-8-13,84.6,75.5,70.9,76.5,72.9,70.0,100,92,73,29.98,29.78,12,0,12,0.50
2013-8-14,72.9,69.5,62.2,71.4,65.2,57.4,96,86,75,30.10,29.82,6,1,7,0.00
2013-8-15,73.2,64.6,58.5,63.5,58.5,54.7,94,82,54,30.18,30.09,4,0,5,0.00
2013-8-16,68.7,64.1,59.0,63.5,60.0,57.0,94,87,73,30.19,30.11,2,0,2,0.00
2013-8-17,69.4,64.8,60.4,69.1,63.9,59.2,99,97,92,30.20,30.13,5,1,5,0.36
2013-8-18,74.5,69.5,65.7,69.3,67.4,64.6,100,93,81,30.21,30.12,7,1,7,0.09
2013-8-19,72.7,68.0,64.8,71.2,67.3,64.0,100,98,93,30.20,30.10,3,0,3,0.26
2013-8-20,78.6,72.1,66.7,73.4,69.7,66.2,100,93,76,30.19,30.11,2,0,2,0.00
2013-8-21,81.9,73.9,69.8,76.3,72.6,69.1,100,96,77,30.23,30.09,4,0,4,0.32
2013-8-22,84.6,76.4,69.4,74.3,71.3,68.9,100,85,62,30.14,29.99,3,0,4,0.00
2013-8-23,83.3,74.5,66.9,74.5,70.0,64.4,97,86,66,30.09,29.93,10,1,10,0.00
2013-8-24,79.2,70.0,61.9,65.1,62.4,59.2,97,79,53,30.31,30.08,6,1,6,0.00
2013-8-25,76.5,67.8,60.4,64.6,60.9,56.5,98,80,53,30.40,30.29,5,0,5,0.00
2013-8-26,78.3,68.0,57.2,64.4,59.1,55.6,97,75,50,30.34,30.12,5,0,5,0.00
2013-8-27,84.6,74.8,65.1,74.3,66.8,57.7,91,77,61,30.12,29.96,5,0,5,0.00
2013-8-28,79.3,75.6,71.4,75.7,72.6,68.7,94,90,82,29.99,29.85,7,0,8,0.01
2013-8-29,82.8,77.2,72.9,73.8,72.0,69.4,93,84,70,30.01,29.83,7,1,7,0.00
2013-8-30,82.8,74.2,66.4,70.7,67.9,65.1,98,82,58,30.06,29.94,4,0,4,0.00
2013-8-31,84.7,75.7,68.2,73.9,70.4,66.0,98,84,67,29.97,29.85,8,0,9,0.03
2013-9-1,87.1,75.5,70.3,76.8,72.2,69.6,99,90,68,29.90,29.77,8,0,9,1.60
2013-9-2,83.5,75.7,68.2,75.2,71.5,67.8,100,88,70,29.88,29.80,4,0,4,0.00
2013-9-3,84.9,77.0,72.0,75.6,72.5,70.3,97,87,65,29.94,29.79,4,0,5,0.01
2013-9-4,80.1,72.3,64.6,72.3,67.2,62.8,97,85,69,30.09,29.94,1,0,2,0.00
2013-9-5,81.7,72.7,65.5,66.9,63.7,56.8,97,76,45,30.11,30.04,6,0,6,0.00
2013-9-6,78.1,69.5,61.9,65.1,60.7,55.9,87,74,55,30.19,30.09,6,1,6,0.00
2013-9-7,78.1,68.8,58.8,68.0,62.7,57.0,98,82,63,30.14,29.99,4,0,5,0.00
2013-9-8,83.1,73.2,64.9,70.0,64.9,59.5,96,77,47,29.99,29.91,6,0,6,0.00
2013-9-9,82.9,75.2,66.6,72.0,68.0,64.2,97,79,62,30.15,29.99,4,0,4,0.00
2013-9-10,85.5,77.0,69.4,72.7,69.9,67.8,97,80,59,30.24,30.14,4,0,5,0.00
2013-9-11,86.2,76.9,69.3,72.5,68.6,64.9,89,76,58,30.20,30.07,0,0,0,0.00
2013-9-12,85.8,75.7,68.7,74.8,69.9,65.7,91,83,65,30.07,29.80,1,0,1,0.00
2013-9-13,80.8,72.5,63.1,69.3,63.2,52.9,90,74,51,29.90,29.75,10,1,12,0.00
2013-9-14,71.4,63.4,56.7,58.3,52.5,47.5,84,69,51,30.16,29.90,9,1,9,0.00
2013-9-15,76.1,64.7,51.4,63.1,56.4,49.3,97,76,57,30.25,30.13,4,0,4,0.00
2013-9-16,81.7,72.1,66.4,69.6,64.1,59.5,98,78,51,30.20,30.05,11,1,11,0.00
2013-9-17,72.5,64.7,56.7,59.7,54.5,50.5,93,71,47,30.34,30.19,6,1,7,0.00
2013-9-18,69.1,59.5,49.5,55.2,50.5,45.1,97,74,43,30.33,30.19,5,0,5,0.00
2013-9-19,72.7,63.8,55.8,64.2,57.3,50.5,91,80,62,30.21,30.09,3,0,4,0.00
2013-9-20,68.5,65.3,61.0,66.0,63.1,59.4,98,93,79,30.11,29.97,3,0,4,0.17
2013-9-21,74.3,67.7,64.2,70.3,66.4,63.3,99,96,85,29.98,29.73,6,0,8,0.45
2013-9-22,73.6,65.9,60.4,63.7,60.8,57.2,99,85,58,29.91,29.72,9,2,11,0.16
2013-9-23,68.4,60.7,54.0,58.5,53.7,50.7,91,78,59,30.09,29.91,6,1,6,0.00
2013-9-24,71.6,62.3,54.9,61.2,56.3,52.0,96,81,64,30.12,29.96,4,0,4,0.00
2013-9-25,70.3,63.4,54.9,64.0,59.2,52.7,98,87,65,29.97,29.88,3,0,4,0.00
2013-9-26,72.3,64.2,57.9,61.3,57.8,52.9,96,81,54,30.05,29.89,6,1,7,0.00
2013-9-27,71.1,61.6,52.9,59.7,55.8,51.8,98,82,58,30.20,30.05,5,1,6,0.00
2013-9-28,68.4,59.7,52.3,58.3,54.1,51.3,98,83,62,30.28,30.19,8,1,8,0.00
2013-9-29,70.0,60.3,51.1,57.9,53.5,50.4,99,80,55,30.19,30.05,7,1,8,0.00
2013-9-30,72.0,61.6,52.2,59.5,55.1,51.1,98,80,55,30.12,30.01,4,0,4,0.00
2013-10-1,78.3,67.6,57.4,63.5,58.2,53.1,89,73,53,30.13,30.03,4,0,5,0.00
2013-10-2,79.9,70.4,59.7,63.0,60.1,57.7,93,71,51,30.14,30.05,6,0,6,0.00
2013-10-3,81.9,72.9,64.9,65.7,62.1,58.6,85,70,49,30.13,30.05,3,0,3,0.00
2013-10-4,82.6,72.6,63.9,66.9,63.9,61.2,95,76,54,30.13,30.05,4,0,4,0.00
2013-10-5,85.3,74.9,66.4,70.3,65.2,62.6,88,73,51,30.12,30.03,4,0,4,0.00
2013-10-6,81.3,72.8,64.8,70.3,66.8,62.8,97,82,60,30.06,29.93,7,1,7,0.00
2013-10-7,72.5,69.2,63.0,70.7,67.5,54.7,99,94,76,30.01,29.84,9,1,9,1.38
2013-10-8,62.8,58.8,56.5,55.6,50.4,46.8,86,74,65,30.22,30.00,9,2,11,0.00
2013-10-9,61.5,56.7,52.9,55.6,52.3,49.5,97,85,78,30.21,30.11,14,5,15,0.13
2013-10-10,59.7,55.7,52.2,59.0,54.9,51.3,98,98,96,30.11,29.95,12,6,14,0.03
2013-10-11,65.5,60.6,57.4,63.0,59.5,56.7,99,96,90,29.99,29.92,8,2,9,0.08
2013-10-12,66.4,62.5,60.1,64.9,61.7,59.2,99,97,94,30.09,29.96,7,2,7,0.02
2013-10-13,64.6,61.8,60.1,63.5,61.1,59.7,100,98,94,30.22,30.09,9,3,10,0.11
2013-10-14,63.1,60.1,55.8,61.0,59.3,54.9,100,97,92,30.26,30.19,7,3,9,0.03
2013-10-15,69.6,60.3,51.6,61.0,56.5,51.1,100,88,68,30.22,30.07,9,2,9,0.03
2013-10-16,68.2,63.8,61.7,63.0,61.3,60.1,97,91,81,30.08,29.96,3,0,3,0.00
2013-10-17,71.1,65.7,61.0,65.5,62.4,59.5,97,89,73,29.97,29.84,5,0,5,0.01
2013-10-18,67.1,60.9,53.2,64.9,53.2,45.7,97,77,54,30.06,29.88,10,2,12,0.00
2013-10-19,66.7,59.9,55.9,63.7,57.9,53.6,99,93,84,29.99,29.82,5,0,7,0.02
2013-10-20,60.4,53.4,45.7,57.0,45.5,39.9,98,76,50,30.14,29.91,7,2,8,0.00
2013-10-21,64.0,53.7,42.3,50.2,45.4,39.9,96,75,49,30.18,30.01,4,0,5,0.00
2013-10-22,66.0,58.7,54.0,58.8,54.0,48.6,97,85,60,30.02,29.81,5,0,6,0.00
2013-10-23,63.7,56.2,45.5,57.6,47.7,35.2,99,76,43,30.01,29.69,12,2,13,0.03
2013-10-24,55.8,46.1,37.2,39.6,34.7,32.2,86,66,44,30.20,30.01,11,2,12,0.00
2013-10-25,52.2,44.2,37.6,36.1,32.5,26.8,84,65,39,30.38,30.20,13,3,15,0.00
2013-10-26,55.9,44.2,31.8,37.4,31.9,28.2,88,64,40,30.38,30.09,8,1,8,0.00
2013-10-27,64.0,54.6,46.6,45.1,39.7,36.7,73,58,40,30.14,30.06,10,1,10,0.00
2013-10-28,66.6,57.3,49.3,54.1,48.9,43.9,88,74,52,30.27,30.13,5,0,5,0.00
2013-10-29,68.5,60.7,55.4,56.3,53.5,50.9,89,78,60,30.35,30.25,5,0,6,0.00
2013-10-30,71.1,61.5,54.0,59.7,56.5,52.7,99,84,64,30.30,30.17,3,0,3,0.00
2013-10-31,71.1,63.9,56.7,62.1,58.0,55.4,97,82,67,30.20,29.91,0,0,0,0.00
2013-11-1,70.0,66.7,62.2,66.6,64.5,61.3,98,93,82,29.92,29.65,9,1,10,0.23
2013-11-2,67.3,59.9,53.4,61.3,50.0,37.4,98,73,40,29.95,29.70,10,2,10,0.01
2013-11-3,60.1,51.2,44.4,40.1,37.6,33.8,78,61,42,30.39,29.95,13,3,15,0.00
2013-11-4,52.5,44.2,37.0,35.4,32.2,29.7,80,64,43,30.58,30.39,8,1,8,0.00
2013-11-5,55.9,47.0,36.1,48.0,40.0,31.1,85,77,68,30.58,30.46,12,3,12,0.00
2013-11-6,67.6,56.5,44.4,56.7,49.9,41.4,92,80,61,30.46,30.13,7,2,7,0.00
2013-11-7,67.3,58.6,44.1,59.9,51.6,32.9,99,79,52,30.13,29.93,14,3,23,0.01
2013-11-8,53.8,44.8,37.0,33.6,28.6,24.8,72,54,33,30.35,30.12,14,3,15,0.00
2013-11-9,56.5,46.4,33.4,34.2,30.0,25.7,78,54,36,30.40,30.20,7,1,8,0.00
2013-11-10,68.5,55.5,43.5,40.8,33.7,25.3,70,46,28,30.26,30.07,12,3,15,0.00
2013-11-11,57.4,48.0,39.0,31.8,28.7,26.2,62,48,33,30.37,30.15,12,1,12,0.00
2013-11-12,57.9,44.2,33.4,37.4,31.5,15.4,93,62,44,30.45,30.05,18,3,20,0.00
2013-11-13,42.6,34.4,27.0,20.3,17.3,15.4,69,50,35,30.57,30.45,17,3,17,0.00
2013-11-14,56.7,43.1,31.5,24.6,21.2,18.0,60,43,25,30.50,30.35,9,1,10,0.00
2013-11-15,59.7,50.0,37.6,48.9,34.0,21.6,80,54,41,30.38,30.23,6,1,7,0.01
2013-11-16,59.2,54.1,49.3,55.9,52.1,46.6,99,93,81,30.29,30.23,6,1,6,0.00
2013-11-17,65.7,59.3,53.6,63.7,57.6,53.1,100,95,83,30.25,29.89,7,1,7,0.02
2013-11-18,71.6,64.0,52.0,66.4,49.8,29.5,99,65,32,29.98,29.81,17,3,18,0.08
2013-11-19,53.1,46.9,40.8,31.3,28.4,26.6,63,49,38,30.35,29.97,13,3,15,0.00
2013-11-20,49.5,42.4,35.2,37.2,30.9,27.0,86,64,50,30.48,30.34,8,2,9,0.00
2013-11-21,55.2,47.1,39.4,45.5,40.6,35.4,89,78,66,30.54,30.42,9,3,10,0.00
2013-11-22,67.8,57.1,46.0,59.0,51.9,43.0,90,83,73,30.42,30.09,8,2,9,0.00
2013-11-23,61.7,54.4,41.7,59.0,40.7,19.4,93,63,35,30.19,30.04,15,4,16,0.00
2013-11-24,41.7,31.2,25.2,21.6,8.3,2.5,49,38,26,30.59,30.19,20,5,20,0.00
2013-11-25,40.8,31.2,20.1,14.2,8.7,5.7,67,40,25,30.63,30.41,8,1,8,0.00
2013-11-26,63.0,41.4,34.3,63.0,34.0,10.6,100,78,34,30.42,29.62,15,3,15,0.95
2013-11-27,45.5,38.3,28.8,45.1,34.5,17.4,99,87,59,30.18,29.52,21,6,23,0.51
2013-11-28,42.3,32.8,25.2,22.8,18.7,15.6,69,56,39,30.52,30.18,12,2,12,0.00
2013-11-29,47.5,37.7,29.8,26.6,24.0,22.1,74,58,41,30.68,30.50,10,2,13,0.00
2013-11-30,45.1,35.3,26.1,31.6,26.9,22.1,85,72,56,30.68,30.40,10,2,10,0.00
2013-12-1,57.6,42.6,28.9,39.6,30.1,25.9,91,65,34,30.40,30.05,6,1,6,0.00
2013-12-2,57.9,47.8,38.1,42.8,39.1,34.3,89,73,51,30.05,29.85,8,1,9,0.00
2013-12-3,53.8,48.7,42.4,47.5,42.9,37.9,92,80,68,30.02,29.89,8,2,8,0.01
2013-12-4,60.8,55.3,50.4,56.1,52.5,46.6,97,90,84,30.10,30.00,7,1,7,0.00
2013-12-5,66.6,60.6,55.2,63.5,59.9,54.5,100,98,88,30.14,30.04,11,1,12,0.05
2013-12-6,75.7,68.8,63.9,64.6,63.3,61.7,99,84,66,30.07,29.96,15,3,19,0.00
2013-12-7,68.2,46.5,41.0,64.6,42.4,33.4,97,86,74,30.48,29.98,18,4,18,0.22
2013-12-8,41.0,34.2,31.5,34.0,31.0,28.0,98,88,69,30.50,30.32,7,2,8,0.32
2013-12-9,43.3,38.0,32.7,43.2,37.8,32.2,100,99,98,30.32,30.09,7,1,8,0.29
2013-12-10,45.7,41.2,30.6,44.1,37.8,23.4,100,88,57,30.35,29.95,13,3,13,0.40
2013-12-11,47.7,37.6,29.1,27.3,23.6,19.6,77,58,36,30.48,30.31,9,2,9,0.00
2013-12-12,41.7,36.0,29.7,27.5,19.1,12.6,71,51,32,30.45,30.30,15,4,17,0.00
2013-12-13,50.2,38.8,28.0,25.7,18.6,10.8,61,45,29,30.42,30.30,10,1,11,0.00
2013-12-14,44.8,40.1,36.1,40.1,33.8,25.5,98,80,52,30.33,29.80,14,3,14,0.84
2013-12-15,51.3,41.5,34.5,42.3,34.9,27.3,99,79,53,30.09,29.72,18,3,18,0.03
2013-12-16,54.3,42.1,31.8,36.0,31.2,27.0,83,67,42,30.20,30.08,7,1,7,0.00
2013-12-17,60.3,47.0,36.0,39.9,36.1,32.7,91,68,41,30.14,29.89,26,2,26,0.00
2013-12-18,47.3,40.4,33.1,37.9,21.9,15.8,93,50,31,30.31,30.05,13,2,14,0.00
2013-12-19,61.3,48.2,34.9,29.1,22.6,15.4,56,38,22,30.34,30.23,12,2,12,0.00
2013-12-20,65.7,54.6,45.1,53.1,44.1,28.9,82,68,48,30.26,30.12,12,2,14,0.00
2013-12-21,72.9,60.8,51.1,65.1,55.5,47.8,94,83,65,30.16,30.04,14,2,14,0.00
2013-12-22,75.6,68.5,63.1,66.9,64.3,60.6,98,87,67,30.09,30.01,13,3,14,0.20
2013-12-23,64.9,58.7,44.2,64.4,56.7,36.1,99,93,73,30.17,29.99,12,4,17,1.01
2013-12-24,44.4,38.7,27.9,36.9,27.1,13.8,80,64,45,30.48,30.15,16,6,16,0.00
2013-12-25,36.9,29.0,21.6,17.8,13.4,10.4,69,53,35,30.59,30.44,9,2,9,0.00
2013-12-26,51.4,37.2,25.2,27.0,23.0,17.1,85,58,35,30.44,30.28,8,1,9,0.00
2013-12-27,51.1,40.6,31.5,23.7,20.6,17.8,61,46,30,30.50,30.39,7,1,7,0.00
2013-12-28,57.7,46.4,36.5,39.6,26.3,21.2,78,46,30,30.43,30.18,7,1,9,0.00
2013-12-29,53.6,47.3,41.0,52.0,43.6,29.8,99,88,47,30.18,29.72,15,2,17,1.36
2013-12-30,52.2,45.6,40.3,42.1,38.5,33.6,89,77,64,30.16,29.94,8,2,9,0.00
2013-12-31,48.7,41.3,34.3,35.4,28.2,21.0,97,63,35,30.38,30.14,14,2,14,0.01
2014-1-1,48.4,40.4,31.6,28.8,25.1,21.6,80,55,39,30.45,30.17,9,2,10,0.00
2014-1-2,45.5,42.0,38.5,43.0,35.6,28.6,98,79,60,30.18,29.61,15,1,16,0.30